User: anonymous   Login
Location: Mascot Post Office (historical)
(40.2645°N, 99.5462°W)
Time: 23:24:38
(UTC+00:00)
Language:

ARGOS - Orbit

View from above orbital plane
View from above orbital plane
View from above satellite
View from above satellite

Ground track
Ground track

The orbit data is extracted from the following two-line orbital elements,

1 25634U 99008A   20272.38462039 -.00000011 +00000-0 +14440-4 0  9994
2 25634 098.4529 306.5372 0009836 346.1734 013.9172 14.19379072118083
Epoch (UTC): 28 September 2020 09:13:51
Eccentricity: 0.0009836
inclination: 98.4529°
perigee height: 820 km
apogee height: 834 km
right ascension of ascending node: 306.5372°
argument of perigee: 346.1734°
revolutions per day: 14.19379072
mean anomaly at epoch: 13.9172°
orbit number at epoch: 11808

The dashed part of the orbit path shows where the satellite is in the earth's shadow,  

DLR